Temp
-0 -0 -0 -0 -0 -0 0 0 0 0 1 1 1 2 2 2 2 2 3 3 4 3 4 4 5 5 5 5 5 5 5 4 3 4 4 4 3 3 3 3 3 3 3
-1 -1 -1 -1 -1 -1 -1 -1 -1 -0 -0 0 0 1 1 1 1 2 2 2 2 2 2 3 3 4 5 5 5 5 5 5 3 3 4 4 3 3 2 3 3 2 2
-1 -2 -2 -2 -2 -2 -2 -2 -2 -2 -1 -1 -1 -1 -1 -0 0 0 0 1 2 1 1 2 2 2 4 4 5 4 4 4 4 4 3 3 3 3 2 2 2 1 1
-2 -2 -3 -3 -3 -3 -3 -3 -3 -3 -3 -3 -3 -3 -3 -2 -2 -1 -1 -1 -0 0 1 1 1 1 2 3 4 4 4 4 4 4 3 3 3 3 2 2 2 2 1
-3 -3 -4 -4 -4 -4 -4 -4 -5 -5 -4 -4 -4 -4 -4 -4 -3 -3 -2 -2 -1 -1 -1 -0 -0 1 1 1 3 4 3 3 4 3 3 3 3 3 2 1 1 2 1
-4 -4 -4 -5 -5 -6 -6 -6 -7 -7 -7 -6 -6 -5 -5 -5 -5 -4 -4 -3 -3 -2 -2 -1 -1 -1 0 0 2 3 2 1 2 3 3 2 3 2 2 2 1 2 3
-5 -5 -6 -6 -7 -8 -8 -8 -8 -8 -8 -8 -7 -6 -6 -6 -6 -5 -5 -4 -4 -3 -2 -2 -2 -1 -1 -0 1 2 1 0 2 3 2 3 2 2 2 1 1 1 3
-6 -7 -7 -8 -8 -9 -9 -9 -9 -9 -9 -9 -9 -8 -6 -8 -6 -6 -6 -5 -5 -4 -3 -2 -2 -1 -2 -1 -1 1 1 1 2 2 2 2 2 0 0 1 1 2 3
-7 -7 -8 -9 -9 -10 -10 -10 -10 -10 -10 -10 -10 -10 -9 -9 -8 -8 -7 -6 -6 -4 -4 -3 -2 -2 -2 -2 -1 0 1 1 1 2 2 2 2 1 0 1 1 3 3
-8 -9 -10 -10 -10 -10 -10 -10 -11 -11 -11 -10 -10 -10 -10 -10 -9 -10 -10 -8 -7 -5 -5 -3 -3 -2 -2 -2 -1 -0 0 1 1 2 1 1 1 1 1 1 2 2 3
-9 -10 -10 -10 -10 -10 -11 -11 -11 -12 -11 -11 -11 -11 -11 -11 -10 -10 -10 -9 -8 -8 -6 -4 -3 -2 -2 -2 -2 -1 0 0 1 1 1 1 2 2 2 2 2 2 3
-10 -10 -10 -10 -11 -11 -11 -11 -12 -11 -11 -11 -11 -11 -12 -12 -11 -11 -10 -10 -9 -8 -6 -6 -4 -3 -2 -2 -2 -1 0 1 1 2 1 1 0 2 2 1 2 3 3
-10 -10 -10 -10 -11 -11 -11 -12 -12 -12 -12 -12 -12 -12 -12 -12 -12 -11 -11 -10 -10 -9 -8 -6 -4 -3 -3 -2 -2 -1 0 1 1 1 2 1 0 2 2 2 2 3 3
-10 -10 -10 -11 -11 -11 -12 -12 -12 -12 -13 -13 -13 -13 -13 -12 -13 -12 -12 -11 -10 -9 -8 -7 -5 -4 -2 -2 -2 -1 -0 1 2 1 1 2 1 2 3 2 2 3 3
-9 -10 -10 -11 -11 -11 -12 -12 -13 -13 -13 -13 -14 -14 -13 -13 -13 -13 -12 -11 -10 -9 -8 -8 -6 -5 -3 -2 -2 -1 -0 1 1 1 1 2 2 3 3 2 2 3 3
-10 -10 -9 -10 -10 -10 -11 -11 -13 -13 -13 -13 -14 -14 -14 -14 -14 -13 -12 -11 -10 -9 -8 -8 -7 -5 -3 -2 -2 -1 -1 1 1 2 1 1 2 2 3 2 2 3 3
-10 -9 -9 -9 -10 -9 -8 -9 -11 -11 -11 -12 -13 -13 -14 -14 -14 -14 -13 -11 -9 -9 -8 -7 -6 -6 -4 -2 -2 -2 -1 -0 1 1 2 2 2 2 3 3 3 3 3
-8 -9 -9 -9 -8 -7 -7 -8 -9 -9 -10 -11 -12 -12 -12 -13 -13 -13 -12 -10 -9 -9 -8 -7 -5 -5 -4 -3 -2 -1 -0 -1 1 1 2 1 2 2 3 3 3 3 2
-8 -8 -9 -7 -6 -6 -7 -7 -9 -10 -10 -11 -11 -11 -11 -11 -11 -11 -10 -10 -9 -8 -8 -7 -6 -6 -3 -3 -2 -1 -2 -0 -0 1 1 1 2 2 2 2 3 2 2
-7 -8 -7 -6 -5 -6 -7 -7 -8 -8 -8 -9 -11 -10 -10 -10 -10 -9 -9 -9 -8 -8 -7 -7 -7 -5 -4 -3 -2 -0 -1 -1 -0 0 0 1 1 2 2 2 2 2 2
-7 -7 -7 -5 -5 -6 -6 -6 -8 -9 -8 -8 -9 -8 -7 -8 -8 -8 -8 -8 -8 -7 -6 -6 -5 -5 -4 -3 -2 -2 -1 -0 1 1 -0 -1 1 1 1 1 2 2 2
-7 -7 -5 -5 -5 -6 -6 -5 -6 -8 -7 -8 -8 -8 -7 -7 -8 -8 -8 -7 -6 -6 -6 -4 -4 -3 -2 -1 -1 -1 -0 -0 -0 -0 -0 -0 0 1 1 1 1 1 1
-6 -7 -5 -4 -4 -4 -4 -4 -5 -4 -5 -6 -7 -6 -6 -6 -7 -6 -6 -7 -6 -4 -4 -3 -2 -1 -2 -1 -0 -0 -0 1 1 0 0 -1 -0 -1 1 1 1 1 1
-6 -6 -5 -5 -3 -3 -3 -3 -3 -4 -3 -4 -4 -3 -2 -3 -3 -4 -5 -2 -2 -3 -3 -2 -1 -1 0 0 -0 -0 0 1 -0 0 -1 0 -1 -0 0 1 1 1 1
-6 -5 -5 -5 -3 -3 -3 -2 -2 -3 -3 -3 -3 -3 -3 -3 -4 -3 -2 -3 -2 -1 -1 -1 -0 1 1 -1 0 0 0 -1 -1 -0 -1 0 -1 -1 0 1 1 1 1
-5 -5 -5 -5 -4 -3 -2 -3 -2 -2 -2 -2 -2 -2 -2 -2 -2 -2 -1 -1 -1 -1 -1 -1 -0 0 -0 0 -0 -0 0 1 1 -1 -1 0 -0 0 1 1 1 1 1
Height
3055 3052 3048 3045 3042 3039 3036 3033 3031 3029 3027 3026 3026 3025 3026 3027 3029 3032 3034 3035 3039 3043 3046 3050 3057 3063 3070 3076 3083 3092 3100 3106 3114 3119 3125 3131 3137 3143 3145 3152 3156 3161 3163
3049 3045 3041 3037 3034 3030 3027 3024 3022 3020 3019 3018 3018 3017 3018 3019 3020 3023 3026 3028 3032 3036 3039 3044 3048 3055 3063 3069 3076 3086 3094 3101 3109 3115 3122 3129 3134 3139 3144 3151 3156 3160 3162
3043 3039 3034 3030 3026 3022 3019 3016 3013 3011 3009 3009 3008 3008 3008 3009 3012 3014 3017 3021 3025 3028 3033 3037 3043 3048 3055 3062 3070 3079 3087 3095 3104 3111 3119 3126 3132 3136 3143 3150 3156 3159 3162
3036 3032 3027 3023 3018 3014 3010 3006 3003 3001 3000 2999 2999 2999 2999 3001 3002 3005 3008 3012 3016 3021 3025 3030 3036 3042 3048 3055 3064 3073 3081 3090 3099 3108 3116 3124 3129 3134 3140 3146 3154 3159 3162
3030 3025 3019 3015 3010 3006 3002 2998 2997 2993 2992 2991 2989 2990 2990 2992 2995 2997 3000 3004 3008 3013 3018 3023 3030 3037 3042 3049 3057 3066 3076 3085 3093 3103 3112 3121 3128 3132 3137 3147 3154 3159 3162
3023 3017 3013 3008 3002 2998 2994 2990 2987 2985 2982 2979 2978 2979 2981 2984 2985 2988 2992 2995 3000 3005 3011 3016 3023 3030 3035 3042 3051 3060 3071 3080 3088 3099 3108 3118 3124 3129 3140 3147 3154 3158 3162
3015 3010 3004 2999 2994 2990 2987 2984 2980 2977 2976 2972 2969 2970 2972 2973 2975 2978 2982 2987 2992 2997 3003 3009 3016 3024 3031 3038 3046 3055 3066 3078 3085 3096 3105 3115 3119 3126 3135 3146 3153 3158 3163
3008 3002 2996 2992 2988 2983 2980 2975 2971 2968 2966 2964 2960 2959 2961 2967 2965 2970 2974 2978 2983 2988 2995 3001 3009 3017 3025 3032 3041 3051 3062 3073 3083 3094 3104 3112 3120 3126 3134 3146 3152 3158 3163
3002 2995 2990 2985 2980 2975 2970 2966 2962 2959 2956 2957 2954 2952 2951 2955 2959 2959 2964 2969 2974 2979 2987 2993 3002 3010 3019 3028 3036 3045 3056 3070 3082 3090 3101 3110 3116 3126 3134 3144 3151 3157 3163
2996 2989 2982 2977 2972 2967 2962 2957 2953 2950 2947 2946 2946 2945 2944 2947 2950 2953 2955 2959 2965 2971 2979 2985 2994 3003 3013 3022 3032 3041 3053 3066 3079 3089 3100 3109 3118 3124 3135 3143 3150 3156 3164
2989 2982 2976 2971 2966 2959 2953 2948 2944 2940 2938 2935 2935 2935 2935 2937 2941 2944 2948 2952 2958 2963 2970 2978 2986 2997 3007 3017 3028 3037 3050 3062 3075 3085 3098 3107 3122 3130 3134 3141 3151 3157 3165
2983 2978 2971 2965 2957 2950 2944 2938 2933 2929 2926 2924 2923 2924 2924 2926 2931 2934 2939 2944 2950 2957 2962 2969 2978 2990 3001 3013 3024 3034 3048 3060 3071 3083 3094 3104 3114 3126 3134 3142 3150 3158 3166
2978 2972 2965 2957 2948 2941 2934 2927 2921 2917 2913 2911 2910 2911 2912 2914 2919 2924 2929 2935 2941 2949 2956 2964 2972 2983 2996 3009 3019 3031 3044 3054 3068 3082 3091 3101 3113 3127 3135 3143 3152 3160 3166
2974 2966 2956 2949 2940 2931 2923 2915 2909 2903 2899 2896 2896 2897 2899 2902 2907 2913 2919 2927 2934 2942 2949 2957 2967 2979 2991 3005 3016 3028 3041 3052 3067 3082 3092 3107 3115 3126 3136 3143 3152 3159 3168
2970 2960 2950 2941 2931 2922 2912 2902 2894 2888 2884 2883 2883 2883 2886 2891 2895 2902 2909 2916 2926 2935 2943 2954 2965 2977 2989 3002 3014 3025 3038 3050 3067 3078 3091 3106 3117 3128 3138 3144 3154 3160 3170
2965 2955 2944 2935 2926 2913 2902 2892 2884 2878 2875 2873 2872 2872 2874 2879 2884 2892 2899 2908 2918 2930 2940 2951 2962 2974 2987 2997 3011 3022 3033 3048 3064 3078 3094 3108 3118 3129 3138 3147 3154 3163 3172
2963 2951 2941 2929 2918 2908 2898 2889 2880 2874 2870 2867 2865 2865 2866 2869 2874 2881 2891 2901 2913 2925 2938 2948 2959 2970 2981 2993 3006 3018 3028 3045 3066 3080 3095 3109 3120 3131 3141 3150 3156 3166 3175
2961 2951 2939 2926 2916 2908 2901 2890 2881 2875 2871 2866 2862 2861 2861 2863 2867 2875 2884 2897 2910 2924 2935 2947 2958 2966 2979 2993 3004 3018 3035 3053 3065 3083 3099 3112 3123 3133 3143 3152 3159 3170 3178
2961 2951 2939 2926 2917 2913 2905 2895 2885 2878 2872 2867 2863 2860 2861 2861 2865 2872 2883 2895 2909 2922 2934 2947 2957 2969 2982 2992 3003 3019 3036 3054 3070 3087 3102 3114 3124 3135 3145 3154 3162 3171 3179
2964 2953 2941 2927 2925 2916 2907 2896 2888 2881 2879 2875 2870 2867 2864 2865 2870 2876 2885 2897 2911 2923 2935 2947 2958 2967 2982 2993 3009 3022 3037 3056 3072 3075 3104 3115 3126 3138 3147 3155 3164 3173 3180
2968 2956 2943 2934 2927 2921 2912 2903 2895 2893 2888 2884 2880 2877 2878 2879 2882 2889 2896 2905 2915 2927 2938 2948 2959 2970 2983 2997 3012 3026 3041 3056 3070 3087 3099 3115 3124 3134 3146 3155 3164 3173 3181
2974 2962 2949 2940 2932 2923 2918 2911 2903 2897 2894 2892 2887 2887 2889 2892 2896 2901 2907 2916 2925 2935 2943 2952 2963 2975 2991 3008 3017 3032 3047 3060 3070 3093 3102 3111 3121 3131 3144 3155 3165 3174 3182
2980 2970 2958 2948 2940 2933 2929 2921 2912 2904 2906 2903 2898 2900 2903 2903 2904 2910 2917 2924 2932 2943 2953 2964 2974 2988 2999 3012 3025 3034 3049 3065 3073 3083 3098 3108 3122 3135 3145 3155 3164 3172 3181
2988 2978 2969 2959 2951 2944 2941 2936 2931 2922 2919 2915 2910 2909 2910 2913 2918 2924 2926 2934 2945 2954 2964 2976 2979 2991 3008 3022 3034 3044 3053 3061 3076 3088 3105 3111 3127 3136 3146 3156 3166 3174 3181
2997 2988 2980 2972 2963 2955 2952 2950 2945 2943 2936 2930 2928 2924 2925 2926 2929 2936 2939 2943 2950 2967 2980 2986 2994 3007 3019 3029 3034 3043 3054 3066 3080 3094 3107 3120 3129 3140 3149 3159 3167 3174 3180
3005 2999 2992 2984 2978 2971 2967 2965 2959 2956 2952 2948 2947 2947 2944 2944 2949 2955 2960 2964 2970 2975 2984 2997 3008 3018 3030 3038 3053 3063 3069 3080 3090 3100 3113 3125 3133 3145 3152 3160 3167 3174 3180
Wind_Speed
28 30 31 32 32 31 30 29 29 28 27 27 28 28 28 29 28 28 30 31 31 31 33 34 35 36 38 41 41 37 34 32 31 30 28 25 24 19 26 37 32 29 26
30 31 31 31 31 31 29 29 28 28 28 28 28 29 28 28 29 29 29 31 31 30 32 33 33 34 38 41 42 39 36 34 33 33 28 24 24 23 20 36 36 31 25
30 31 31 31 31 31 30 29 29 29 29 29 29 29 29 30 30 31 31 31 32 31 31 32 31 30 34 41 42 40 37 36 34 33 29 26 22 18 18 39 31 32 24
32 31 32 32 32 31 32 31 31 31 30 30 30 29 30 30 32 32 32 32 32 32 32 32 30 28 30 35 42 41 39 37 35 34 31 29 27 19 19 33 37 31 25
32 32 32 32 32 31 32 33 31 32 30 29 30 28 29 29 30 31 32 32 33 33 33 33 30 29 29 31 38 42 39 36 35 35 33 26 26 29 27 46 34 31 24
32 32 32 31 31 31 31 32 32 30 31 31 30 28 28 27 28 29 30 33 34 33 33 32 29 29 32 31 34 42 39 34 35 35 36 31 30 31 54 43 36 32 29
35 34 33 31 30 31 30 29 30 29 28 30 32 29 27 25 27 28 29 31 33 34 34 33 31 28 28 30 33 41 42 39 40 36 30 32 37 19 49 38 36 31 31
35 34 33 31 29 29 29 30 31 31 30 29 32 32 28 21 28 28 29 30 32 35 36 35 31 30 29 29 33 40 46 50 42 34 33 35 33 48 42 38 34 33 30
34 34 32 30 28 30 33 34 33 31 31 27 28 30 29 22 20 25 28 31 34 37 35 36 33 32 31 31 32 41 49 51 43 38 31 32 40 54 44 39 36 33 29
33 31 30 29 31 33 34 35 33 31 30 28 24 25 27 22 21 24 27 32 33 35 33 37 36 35 33 31 32 41 50 54 42 35 45 43 22 55 44 37 35 32 30
29 28 29 31 33 35 35 35 33 32 31 31 26 25 26 25 22 25 30 30 31 31 34 37 38 36 36 34 34 42 53 55 46 46 42 32 47 41 41 37 36 32 30
28 26 29 32 35 36 37 36 34 34 33 32 29 28 28 29 25 26 28 30 32 30 36 37 40 38 38 36 37 44 57 54 55 49 43 32 49 54 42 40 36 34 32
27 29 32 34 36 37 36 36 36 36 35 35 33 32 32 33 30 29 31 30 32 32 31 38 41 41 38 39 42 48 64 55 51 54 43 40 58 49 44 41 37 35 34
31 33 35 37 36 35 36 36 36 34 32 31 30 31 32 34 34 32 32 31 31 32 34 36 40 42 43 42 46 56 69 62 57 50 49 63 48 45 46 42 38 36 37
32 35 37 33 34 37 39 36 32 28 25 23 23 24 29 31 33 32 33 34 33 33 34 30 29 37 43 45 46 62 72 68 61 60 60 72 48 46 46 40 37 36 38
34 35 36 35 37 36 36 32 24 17 15 13 13 15 20 25 29 32 34 36 36 34 31 30 30 38 45 46 49 63 73 72 60 59 64 52 47 48 44 40 38 37 39
36 38 39 39 35 30 31 30 23 17 17 11 9 8 11 19 26 31 36 36 37 36 32 31 34 40 48 48 50 60 67 75 66 69 52 46 45 46 43 41 38 38 40
38 38 37 35 27 25 23 24 22 16 14 13 9 4 5 15 22 30 35 34 37 36 34 33 39 44 47 44 48 63 72 69 69 65 52 47 46 42 42 40 38 39 40
36 39 38 27 23 22 21 16 16 16 18 15 12 8 9 14 24 30 31 35 40 41 35 39 41 43 44 46 52 67 63 69 70 64 53 44 45 40 41 41 40 39 39
37 37 33 23 23 18 16 20 18 14 17 19 17 20 22 23 26 32 37 43 47 40 42 42 41 44 42 49 54 71 73 68 63 56 49 46 41 42 43 41 40 39 38
38 41 31 20 21 22 19 18 19 17 22 20 21 32 34 35 38 41 42 46 47 45 46 43 45 42 48 53 57 65 60 55 66 59 54 46 45 46 43 41 39 39 37
38 40 30 27 27 22 18 19 16 17 20 26 36 42 42 36 30 31 46 41 42 46 44 49 53 62 61 48 60 66 73 71 68 56 54 49 48 48 44 41 39 38 36
37 41 39 28 32 30 35 38 38 34 32 28 19 25 33 36 39 40 38 37 47 49 54 58 65 61 55 63 62 66 73 79 66 60 61 54 49 44 45 42 40 39 37
36 42 45 41 32 32 36 35 36 36 46 43 40 38 39 43 47 44 44 57 50 42 46 67 31 62 71 62 64 64 69 80 73 65 55 56 47 47 44 42 40 37 36
36 41 44 47 43 41 37 37 35 37 35 38 41 39 32 41 37 38 36 41 42 57 47 47 54 59 58 62 65 71 68 82 69 61 56 57 47 43 42 40 39 38 37
35 39 42 41 45 44 38 34 32 34 33 40 42 42 37 36 39 44 43 45 47 49 54 58 54 54 59 65 66 67 63 66 64 58 53 54 48 44 42 41 40 38 36
Wind_Direction
314 312 310 308 305 302 300 297 294 291 288 284 281 277 273 269 265 259 253 251 246 243 244 241 235 229 226 225 227 223 219 216 210 217 217 218 203 219 217 193 198 189 178
315 313 311 308 306 303 301 298 295 292 288 284 279 275 271 266 262 258 252 249 246 239 238 236 235 229 222 223 223 222 217 215 205 212 215 221 218 237 195 194 198 196 180
316 314 311 308 305 304 301 299 296 293 289 284 279 274 269 264 259 256 251 246 244 241 235 234 231 227 221 219 220 218 216 212 206 209 208 217 214 223 228 188 197 195 183
318 315 312 309 307 305 303 301 299 294 290 284 276 270 265 259 256 253 249 245 240 237 235 233 228 225 220 216 214 214 213 210 205 204 203 205 208 200 199 196 195 182 177
317 314 312 309 307 305 303 300 298 293 287 280 274 268 263 258 253 249 249 245 238 233 232 232 229 223 222 214 208 210 208 206 203 200 202 201 196 194 187 183 191 175 176
317 315 312 309 308 307 305 303 301 299 295 290 282 274 264 260 254 247 240 238 234 229 230 230 224 220 219 214 204 204 199 194 206 196 204 210 200 185 170 184 186 182 175
317 316 314 313 312 309 306 304 300 296 291 288 283 275 268 260 254 247 238 232 230 227 225 224 223 220 219 217 202 200 191 178 199 202 189 204 198 198 174 182 187 181 172
318 318 318 315 311 307 304 303 302 299 296 292 288 283 271 261 250 245 241 230 224 223 222 223 220 216 213 211 201 195 188 183 195 198 197 195 200 174 176 185 186 177 166
320 319 316 314 312 310 311 310 307 304 297 290 284 281 278 266 256 248 233 228 223 220 218 220 218 213 210 207 200 192 187 186 186 192 190 190 183 176 179 184 184 171 168
322 318 317 317 317 315 310 306 303 297 290 283 273 271 269 264 246 233 231 225 222 223 218 217 216 214 208 201 198 192 183 180 183 182 183 171 192 176 183 181 178 167 170
322 321 321 319 315 309 305 303 300 294 289 283 273 263 261 257 243 236 230 234 227 224 215 217 216 211 207 198 190 190 179 179 185 175 196 180 168 191 182 179 174 168 171
330 326 319 315 313 310 307 306 299 293 290 284 275 265 258 255 246 239 230 224 227 222 219 211 213 208 202 194 188 184 176 174 180 182 176 181 185 190 183 176 170 168 169
334 328 323 319 315 314 310 303 296 292 287 281 275 267 258 255 248 237 232 221 218 217 213 213 209 203 197 189 188 179 175 177 183 182 179 174 177 184 178 172 170 169 168
336 328 325 324 322 316 306 301 296 290 282 275 267 259 253 246 244 238 232 224 217 210 211 206 205 200 190 184 189 177 175 176 177 188 181 176 175 181 177 168 168 167 169
335 334 328 330 323 321 320 317 309 296 288 277 264 254 247 239 233 226 224 219 213 204 205 199 198 193 185 182 185 178 178 169 164 158 169 177 183 178 173 165 169 165 169
339 336 341 338 335 327 333 336 331 322 308 296 277 259 245 230 225 216 212 210 206 200 191 184 179 180 182 182 181 180 185 170 166 168 171 175 174 175 170 168 167 167 168
348 350 349 344 344 344 350 352 354 353 348 333 305 274 238 219 212 206 204 201 196 190 177 178 169 176 184 181 180 181 187 168 170 173 168 171 171 171 169 171 165 169 171
358 359 350 349 357 14 18 23 24 11 24 12 2 357 181 197 192 191 192 189 182 174 170 173 174 177 182 174 179 180 180 179 174 169 167 169 170 169 172 171 166 172 173
5 3 358 359 29 39 24 24 24 50 61 57 46 42 136 159 169 170 175 174 169 163 163 170 176 174 170 172 175 176 174 170 166 169 167 171 169 171 174 172 171 174 175
11 7 20 11 46 35 50 51 38 39 55 56 71 93 105 130 142 152 155 155 155 158 161 165 159 160 170 173 171 172 170 170 174 165 168 169 170 174 174 173 174 176 177
19 23 28 33 35 41 55 39 59 68 63 63 84 99 100 113 122 127 135 145 149 154 159 156 157 159 158 159 163 172 150 161 170 160 170 170 172 172 173 174 176 178 179
30 29 34 38 40 38 57 39 42 99 101 111 121 109 106 98 122 131 141 143 150 152 157 154 150 147 148 153 174 163 156 154 163 166 170 168 171 170 174 175 177 180 182
36 37 46 46 50 52 47 46 55 51 70 74 86 85 101 106 118 116 130 141 144 139 139 142 143 147 156 166 166 158 169 166 172 169 173 167 169 168 174 173 178 181 184
43 46 47 49 56 56 58 52 60 57 74 71 64 90 103 95 111 127 128 122 129 135 146 144 153 150 159 157 161 171 169 168 171 173 173 164 163 172 172 175 178 182 186
52 52 52 53 59 61 65 67 61 73 76 74 67 100 89 105 110 112 117 114 119 129 151 161 154 156 159 165 175 169 171 171 168 168 169 168 161 168 171 174 180 186 190
54 55 56 55 60 69 71 69 63 72 80 83 78 88 84 88 105 114 114 129 125 136 155 157 160 156 159 162 165 170 166 169 169 159 167 164 161 174 172 180 186 192 194